Погода в Фергане

Погода в Фергане : погода сейчас, прогноз погоды и архив. Всё, что Вы хотите узнать о погоде в Фергане!

Поиск расширенной информации на нашем сайте:

Другие новости

Новости СМИ2

Главная страница сайта

Новости сайта

03.07.2017

Напоминаем, что на нашем специализированном сайте Метеоцентр.Азия вы можете получить высокодетализированные автоматические прогнозы погоды по пунктам России, СНГ и мира в авиационном формате (включающие направление и скорость ветра, видимость, явления погоды, количество и форму облачности, нижнюю и верхнюю границу облачности).


Погода в Фергане - сегодня

Время (UTC), дата Ветер
(°,м/с) 
Видим.   Явления Облачность Т
(°С)
Тd
(°С)
f(%) Тe
(°С)
Pmin
(гПа)
dP
(гПа)
Po
(мм)
O2
(г/м3)
Тmin Tmax R s Состояние
почвы
06 18.02.18 260 (З) 10 км    10/0 средняя 
[Ac As]
+3 +0.6 84 +4  1027.3  718  286  +0.7         
09 18.02.18 240 (ЮЗ) 10 км    10/6 1000 м средняя 
[Sc|Ac As]
+4.5 -0.3 71 +5  1025.5  -1.3  717  284           
12 18.02.18 330 (СЗ) 10 км    10/0 средняя, верхняя 
[Ac cast|Cs]
+5.1 -0.8 66 +6  1024.6  -0.7  716  283           
15 18.02.18 тихо ()   н/о    ясно 
+1.7 -0.2 87 +2  1025.6  0.2  716  287    +5.7       
18 18.02.18 140 (ЮВ) н/о    ясно 
+1.3 -3.2 72 +2  1025.8  0.1  717  288    +5.7       
21 18.02.18 150 (ЮВ) н/о    ясно 
-0.3 -1.8 90 1026.4  717  289           
00 19.02.18 тихо ()   н/о    ясно 
-2.3 -3.2 94 -2  1026.9  717  291           
03 19.02.18 140 (ЮВ) 10 км    10/0 верхняя 
[Cc]
-2.5 -3.8 91 -2  1026.8  -0.1  716  292           
06 19.02.18 010 (С) 10 км    10/0 средняя, верхняя 
[Ac lent|Cc]
+4.3 -0.2 73 +5  1024  0.9  716  284  -3         
09 19.02.18 340 (С) 10 км    10/0 верхняя 
[Cs]
+7 -0.9 57 +7  1020.9  -2.3  714  281           
12 19.02.18 050 (СВ) 10 км    10/0 средняя 
[Ac und]
+6.9 -2 53 +8  1019.7  -1.1  713  280           
15 19.02.18 тихо ()   10 км    10/0 средняя 
[Ac und]
+4.2 -0.7 70 +4  1020.4  713  283    +7.6       
18 19.02.18 010 (С) н/о    10/0 средняя 
[Ac und]
+4.2 +1.1 80 +5  1020  -0.4  713  283    +7.6       
21 19.02.18 030 (СВ) н/о    10/0 средняя 
[Ac As]
+4.7 -0 72 +6  1018.8  -1  712  282           
00 20.02.18 тихо ()   н/о    9/0 средняя, верхняя 
[Ac trans|Cc]
+3.3 +0.7 83 +3  1018.9  -0.2  712  283           
03 20.02.18 тихо ()   10 км    10/0 средняя 
[Ac As]
+0.3 -2.1 84 1029.6  1.8  719  290           
06 20.02.18 050 (СВ) 10 км    10/0 средняя 
[Ac As]
+3.3 -6.4 49 +4  1022.4  -0.1  714  285  -5.6         
09 20.02.18 тихо ()   10 км    10/0 средняя, верхняя 
[Ac trans|Cc]
+13.1 -0.2 40 +13  1009.9  -4.1  707  272           
12 20.02.18 010 (С) 10 км    10/0 средняя, верхняя 
[Ac lent|Cc]
+13.2 +0.6 42 +14  1008.2  -1.6  706  271           
15 20.02.18 тихо ()   н/о    10/3 1000 м средняя 
[Sc|Ac und]
+10 +1.7 56 +10  1011.2  2.1  708  275    +14.4       
18 20.02.18 030 (СВ) н/о  {дождь}  10/10 600 м 
[Ns]
+1.3 +1 98 +2  1033.4  1.1  722  289    +4     
21 20.02.18 070 (В) н/о    10/0 средняя 
[Ac und]
+7.7 +3 72 +9  1016.8  2.7  711  278           
00 21.02.18 130 (ЮВ) н/о  слаб. дождь  10/10 1000 м 
[Ns]
+6.3 +4.7 89 +7  1020.5  3.2  714  280    -0.5       
03 21.02.18 290 (З) 10 км  в посл. час дождь  10/8 1000 м средняя 
[Sc|Ac und]
+6.2 +5.3 94 +7  1022.8  715  281  +6         
06 21.02.18 050 (СВ) 10 км  {дождь}  10/8 1000 м средняя, верхняя 
[Sc|Ac trans|Cc]
+7.2 +3.2 76 +8  1022.9  0.4  716  280  +6    0.8     
Время (UTC), дата Ветер
(°,м/с) 
Видим.   Явления Облачность Т
(°С)
Тd
(°С)
f(%) Тe
(°С)
Pmin
(гПа)
dP
(гПа)
Po
(мм)
O2
(г/м3)
Тmin Tmax R s Состояние
почвы

Для получения пояснительной информации подведите курсор к названию столбца.

ПОГОДА в Фергане - архив

Всё, что Вы хотите узнать о погоде в Фергане - удобно и подробно!

Выберите нужную дату (начиная с 1 января 2015* года) и нажмите кнопку "Найти".
Будут отображены архивные сводки погоды по пункту Фергана, начиная с указанной даты.


Отображать данные в формате CSV (для использования в таблицах Excel)


Внимание! Наш архив погоды предназначен исключительно для личного некоммерческого использования в познавательных целях. Если Вам необходимы официальные справки о состоянии погоды (для производственных, юридических, коммерческих и т.п. целей), обращайтесь в органы Росгидромета.

*Примечание: данная дата относится к архиву по метеостанциям СССР (Россия, СНГ, Балтия).
Архив по метеостанциям Зарубежной Европы и Азии (кроме Китая) хранится 10 дней, по другим регионам земного шара (Китай, Африка, Америка, Австралия, Океания) - 1 день.

Фергана - район местоположения метеостанции


Название, широта, долгота, высота метеостанции:
Фергана 40.4°ш. 71.8°д. 605 м над ур. моря [Узбекистан]

Дополнительная информация

В oтличие oт бoльшинства пoгoдных сайтoв мы публикуем пoдрoбную метеoинфoрмацию в детальнoм прoфессиoнальнoм фoрмате.

Характеристики температуры и влажнoсти вoздуха измеряются на высoте 2 м в тени вдали oт зданий и деревьев.
Скoрoсть ветра измеряется на высoте 10 м (на урoвне рoста челoвека скoрoсть ветра ниже в 1.5-2 раза). Если метеoстанция нахoдится в гoрoде или в лесу, тo скoрoсть ветра занижена на 2-4 м/с пo сравнению с oткрытым местoм. Скoрoсть ветра над акватoриями крупных рек и oзёр, а также на вершинах хoлмoв на 2-5 м/с выше, чем в oбычных услoвиях.
Атмoсфернoе давление в разных тoчках местнoсти мoжет значительнo oтличаться oт давления на метеoстанции, в зависимoсти oт услoвий рельефа (при пoдъёме на 10 м давление пoнижается примернo на 1 мм рт.ст.).